Regional Weather Roundup
Issued by NWS

Home | Current Version | Previous Version | Graphics & Text | Print | Product List | Glossary On
Versions: 1 2 3 4 5 6 7 8 9 10 11 12 13 14 15 16 17 18 19 20 21 22 23 24 25 26 27 28 29 30 31 32 33 34 35 36 37 38 39 40 41 42 43 44 45 46 47 48 49 50
000
ASUS43 KLOT 031622
RWRIL

ILLINOIS REGIONAL WEATHER ROUNDUP
NATIONAL WEATHER SERVICE CHICAGO/ROMEOVILLE IL
1100 AM CDT WED JUN 03 2015

NOTE: "FAIR" INDICATES FEW OR NO CLOUDS BELOW 12,000 FEET WITH NO
SIGNIFICANT WEATHER AND/OR OBSTRUCTIONS TO VISIBILITY.

* THESE STATIONS ARE NOT UNDER NWS QUALITY CONTROL. THEY ALSO MAY NOT
  REPORT WEATHER SUCH AS PRECIPITATION OR FOG.

ILZ001-002-007-009-015-016-024-031700-
NORTHWEST ILLINOIS

CITY           SKY/WX    TMP DP  RH WIND       PRES   REMARKS
MOLINE         MOSUNNY   71  56  58 S13       30.00F
STERLING*      MOSUNNY   73  57  56 SE8       30.03S
SAVANNA*       PTSUNNY   72  57  60 SW12      30.02R
$$

ILZ003-004-008-010-011-017-018-031700-
NORTH CENTRAL ILLINOIS

CITY           SKY/WX    TMP DP  RH WIND       PRES   REMARKS
ROCKFORD       PTSUNNY   72  57  59 S10       30.05F
FREEPORT*      PTSUNNY   71  58  63 S12       30.04F
ROCHELLE*      MOSUNNY   69  56  63 S10G18    30.05S
DE KALB*       SUNNY     68  56  66 SE10      30.06S
PERU*          CLOUDY    71  57  61 SE6       30.05S
$$

ILZ005-006-012>014-019>023-031700-
NORTHEAST ILLINOIS

CITY           SKY/WX    TMP DP  RH WIND       PRES   REMARKS
CHICAGO-OHARE  MOSUNNY   69  53  56 SE8       30.05F
CHICAGO-MIDWAY MOSUNNY   70  54  56 SE3       30.06F
AURORA         SUNNY     71  54  54 S10       30.06S
LANSING*       MOSUNNY   69  52  54 SE10      30.07F
JOLIET*        SUNNY     70  57  61 S7        30.06S
WAUKEGAN       SUNNY     62  52  69 SE8       30.06S
DUPAGE AIRPORT SUNNY     69  55  60 S8        30.06S
KANKAKEE*      MOSUNNY   69  57  65 SE6       30.08F
WHEELING       SUNNY     69  52  54 CALM      30.06F
MORRIS*        SUNNY     70  55  59 SE8       30.05R
ROMEOVILLE*    SUNNY     69  54  58 S9        30.06F
NORTHERLY ISL    N/A     59  53  80 E8          N/A
$$

LMZ740>746-031700-
SOUTHERN LAKE MICHIGAN

STATION/POSITION SKY/WX   TEMP    WIND        PRES    VSBY  WAVE
                          AIR SEA DIR/SP/G                  HT/PER
                          (F)     (DEG/KT/KT) (MB)    (MI)  (FT/S)
SOUTHERN BUOY              44 39  110/  6/  8 1019.4F
HARRISON CRIB              57     110/ 13/ 13   N/A
BURNHAM HARBOR             60      80/  7/  8   N/A
CALUMET HARBOR             65     210/  3/  8   N/A
BURNS HARBOR                      190/  5/  9 1019.0F
MICHIGAN CITY              61     350/  5/  7   N/A
MICHIGAN CITY 6N           58 59  360/  4/  6   N/A           0
ST. JOSEPH                 58 57  360/  4/  4   N/A           0
$$

ILZ025>027-034>036-040-047-049-050-058-095>099-031700-
WEST-CENTRAL ILLINOIS

CITY           SKY/WX    TMP DP  RH WIND       PRES   REMARKS
QUINCY         CLOUDY    64  57  78 S9        30.03R
GALESBURG*     MOSUNNY   70  58  66 S13G20    30.03S
MACOMB*        MOSUNNY   70  58  66 S13       30.04S
JACKSONVILLE*  CLOUDY    67  58  73 S9        30.05S
PITTSFIELD*    CLOUDY    64  58  80 SE9       30.05S
$$

ILZ028>032-037-038-041>044-048-051>054-059>061-031700-
CENTRAL ILLINOIS

CITY           SKY/WX    TMP DP  RH WIND       PRES   REMARKS
PONTIAC        PTSUNNY   71  60  68 S8        30.06S
BLOOMINGTON    PTSUNNY   68  60  75 S8        30.06F
DECATUR        CLOUDY    68  56  65 S6        30.06F
PEORIA         CLOUDY    70  57  63 S13       30.04S
LACON*         MOSUNNY   70  58  65 S7        30.03S
LINCOLN*       PTSUNNY   70  58  65 SE9       30.03F
SPRINGFIELD    PTSUNNY   69  57  65 S13       30.06S
TAYLORVILLE    PTSUNNY   66  57  72 S10       30.05F
$$

ILZ033-039-045-046-055>057-062-063-031700-
EAST-CENTRAL ILLINOIS

CITY           SKY/WX    TMP DP  RH WIND       PRES   REMARKS
CHAMPAIGN      PTSUNNY   69  58  67 VRB5      30.07S
DANVILLE*      SUNNY     67  55  67 SE7       30.07R
RANTOUL*       SUNNY     71  57  61 SE7       30.07F
MATTOON        CLOUDY    66  56  70 CALM      30.07R
PARIS*         CLOUDY    67  57  70 SE5       30.10R
$$

ILZ079-100>102-031700-
SOUTHWEST ILLINOIS

CITY           SKY/WX    TMP DP  RH WIND       PRES   REMARKS
ALTON          CLOUDY    64  61  88 SE9       30.06
BELLEVILLE     CLOUDY    68  60  75 SE8       30.05S
CAHOKIA*       CLOUDY    66  57  72 SE9       30.06S
SPARTA*        CLOUDY    66  58  75 SE7       30.07R
$$

ILZ064>066-069>071-074>076-080>082-084>086-088>090-092>094-031700-
SOUTH-CENTRAL ILLINOIS

CITY           SKY/WX    TMP DP  RH WIND       PRES   REMARKS
CARBONDALE     PTSUNNY   71  57  61 VRB3      30.06R
CAIRO*         MOSUNNY   72  57  60 E3        30.05S
EFFINGHAM*     CLOUDY    66  53  63 CALM      30.09R
MT. VERNON     CLOUDY    66  55  68 E5        30.09R
CENTRALIA*     CLOUDY    74  54  49 SE5       30.07S
SALEM*         PTSUNNY   68  56  65 CALM      30.08S
METROPOLIS*    PTSUNNY   71  59  66 NE6       30.06R
$$

ILZ067-068-072-073-078-083-087-091-031700-
SOUTHEAST ILLINOIS

CITY           SKY/WX    TMP DP  RH WIND       PRES   REMARKS
LAWRENCEVILLE  CLOUDY    66  54  65 VRB5      30.08S
FLORA*         MOSUNNY   65  56  71 E3        30.08S
FAIRFIELD*     CLOUDY    65  56  72 CALM      30.06S
HARRISBURG*    MOSUNNY   69  58  68 NE3       30.08R
ROBINSON*      CLOUDY    65  54  68 CALM      30.10R
CARMI*         PTSUNNY   66  52  59 N3        30.07R
$$

ABBREVIATIONS USED IN REMARKS
   TC - TEMPERATURE IN CELSIUS
  WCI - WIND CHILL INDEX
   HX - HEAT INDEX
  VSB - VISIBILITY
$$




USA.gov is the U.S. government's official web portal to all federal, state and local government web resources and services.